x

St. Joseph, Mi (sjom4) Weather Station

10:39am - Wed 24th Aug 2016 All times are CDT. -5 hours from GMT.

  • Wind
    3mph, 16mph gusts
  • Air Temp 75°f
  • Sea Pressure 1016.6mb
  • St. Joseph, Mi
  • St. Joseph, Mi

More Historic Weather Station data

Upgrade to MSW Pro to gain access to the past 30 days of data for over 8000 Wavebouys and Weather Stations around the globe.

Join Pro

Comparision Forecast

View Surf forecast
   
Wed 08/24 10:39am 3 16 mph 1016.6mb 75f
10:00am 7 15 mph 1017.6mb 74f
9:50am 11 16 mph 1016.9mb 74f
9:40am 9 15 mph 1017.9mb 74f
9:39am 8 17 mph 1017.3mb 75f
9:30am 8 15 mph 1017.3mb 75f
9:20am 9 15 mph 1017.6mb 75f
9:10am 9 17 mph 1017.9mb 74f
9:00am 8 15 mph 1017.3mb 74f
8:50am 8 17 mph 1017.9mb 74f
8:40am 6 11 mph 1017.9mb 74f
8:38am 7 13 mph 1017.3mb 74f
8:30am 6 13 mph 1017.3mb 74f
8:20am 6 13 mph 1017.6mb 73f
8:10am 5 11 mph 1017.9mb 73f
8:00am 6 11 mph 1017.3mb 73f
7:50am 6 13 mph 1016.9mb 72f
7:40am 5 14 mph 1016.9mb 72f
7:38am 7 14 mph 1017.3mb 72f
7:30am 6 13 mph 1017.6mb 72f
7:20am 5 14 mph 1017.3mb 71f
7:10am 3 10 mph 1017.3mb 71f
7:00am 3 14 mph 1016.9mb 71f
6:50am 5 11 mph 1017.3mb 71f
6:40am 2 10 mph 1017.6mb 70f
6:38am 5 11 mph 1017.9mb 70f
6:30am 5 8 mph 1018.3mb 70f
6:20am 3 9 mph 1018.3mb 70f
6:10am 3 11 mph 1017.9mb 70f
6:00am 3 9 mph 1017.6mb 70f
5:50am 3 9 mph 1017.3mb 70f
5:40am 3 13 mph 1017.9mb 70f
5:37am 5 13 mph 1017.6mb 70f
5:30am 2 9 mph 1018.3mb 70f
5:20am 3 9 mph 1018.6mb 70f
5:10am 2 11 mph 1018.3mb 70f
5:00am 3 8 mph 1018.3mb 70f
4:50am 3 8 mph 1017.9mb 70f
4:40am 2 9 mph 1017.9mb 70f
4:37am 3 10 mph 1017.9mb 70f
4:30am 2 8 mph 1018.6mb 70f
4:20am 3 10 mph 1019mb 70f
4:10am 3 9 mph 1019mb 71f
4:00am 5 9 mph 1019mb 71f
3:50am 3 9 mph 1018.6mb 71f
3:40am 3 11 mph 1018.6mb 71f
3:36am 5 13 mph 1019.3mb 71f
3:30am 3 10 mph 1019.3mb 71f
3:20am 6 9 mph 1019.6mb 71f
3:10am 5 9 mph 1020mb 71f
3:00am 3 9 mph 1020mb 71f
2:50am 5 11 mph 1019.6mb 71f
2:40am 5 13 mph 1019.3mb 70f
2:36am 3 9 mph 1020mb 70f
2:30am 3 9 mph 1019.6mb 70f
2:20am 3 9 mph 1020mb 69f
2:10am 3 7 mph 1020mb 69f
2:00am 2 7 mph 1019.3mb 69f
1:50am 2 7 mph 1019.6mb 69f
1:40am 2 7 mph 1020.3mb 69f
1:36am 2 7 mph 1019.3mb 68f
1:30am 2 7 mph 1020.3mb 68f
1:20am 2 6 mph 1019.6mb 68f
1:10am 2 6 mph 1019.6mb 69f
1:00am 2 6 mph 1020.3mb 69f
12:50am 2 5 mph 1020.7mb 69f
12:40am 1 6 mph 1020mb 68f
12:35am 2 6 mph 1020.3mb 68f
12:30am 1 3 mph 1020mb 68f
12:20am 1 5 mph 1020.3mb 68f
12:10am 1 3 mph 1020.7mb 68f
12:00am  -  6 mph 1020.3mb 68f
Tue 08/23 11:50pm 1 5 mph 1020mb 68f
11:40pm 1 5 mph 1020mb 69f
11:35pm 2 5 mph 1020.7mb 69f
11:30pm  -  3 mph 1020.3mb 69f
11:20pm 1 5 mph 1020.7mb 69f
11:10pm 1 5 mph 1021mb 69f
11:00pm 1 3 mph 1021mb 69f
10:50pm  -  2 mph 1020.7mb 69f
10:40pm  -  5 mph 1020.3mb 69f
10:34pm 1 5 mph 1020.7mb 69f
10:30pm 1 5 mph 1020.7mb 69f
10:20pm 1 5 mph 1021.3mb 69f
10:10pm 1 5 mph 1021.7mb 69f
10:00pm 1 5 mph 1021mb 69f
9:50pm  -  3 mph 1021mb 70f
9:40pm 1 5 mph 1021.7mb 70f
9:34pm 1 5 mph 1022mb 70f
9:30pm  -  3 mph 1022mb 70f
9:20pm  -  3 mph 1021.3mb 71f
9:10pm 1 3 mph 1021.3mb 71f
9:00pm  -  3 mph 1021.7mb 71f
8:50pm 1 5 mph 1021mb 71f
8:40pm  -  2 mph 1022mb 71f
8:34pm 1 6 mph 1022mb 72f
8:30pm 1 5 mph 1021.3mb 72f
8:20pm  -  3 mph 1021.7mb 72f
8:10pm 1 5 mph 1021.7mb 73f
8:00pm 2 6 mph 1021.7mb 73f
7:50pm 2 6 mph 1021.3mb 74f
7:40pm 2 5 mph 1022mb 74f
7:33pm 1 10 mph 1022mb 75f
7:30pm 2 6 mph 1021.3mb 75f
7:20pm 2 5 mph 1022mb 76f
7:10pm 2 5 mph 1022mb 78f
7:00pm 2 7 mph 1021.3mb 78f
6:50pm 3 9 mph 1022mb 78f
6:40pm 3 11 mph 1022mb 78f
6:33pm 7 15 mph 1022mb 79f
6:30pm 5 9 mph 1022mb 79f
6:20pm 6 10 mph 1021.7mb 80f
6:10pm 6 14 mph 1021.3mb 79f
6:00pm 8 14 mph 1021.7mb 79f
5:50pm 11 14 mph 1022mb 79f
5:40pm 8 15 mph 1022.4mb 80f
5:32pm 5 18 mph 1022mb 80f
5:30pm 5 14 mph 1022.4mb 80f
5:20pm 7 14 mph 1022mb 80f
5:10pm 8 14 mph 1022mb 80f
5:00pm 6 18 mph 1021.7mb 80f
4:50pm 8 17 mph 1021.7mb 80f
4:40pm 7 13 mph 1022.4mb 80f
4:32pm 8 17 mph 1022mb 80f
4:30pm 11 17 mph 1022.4mb 80f
4:20pm 11 14 mph 1022.4mb 80f
4:10pm 6 14 mph 1022.4mb 79f
4:00pm 10 16 mph 1021.7mb 80f
3:50pm 10 17 mph 1022.7mb 79f
3:40pm 11 17 mph 1022.4mb 79f
3:32pm 13 18 mph 1022.7mb 79f
3:30pm 13 18 mph 1022mb 79f
3:20pm 7 10 mph 1023mb 78f
3:10pm 10 16 mph 1022.4mb 79f
3:00pm 7 17 mph 1022.4mb 78f
2:50pm 9 14 mph 1023mb 79f
2:40pm 11 14 mph 1022mb 78f
2:31pm 9 17 mph 1022.7mb 79f
2:30pm 9 17 mph 1023mb 79f
2:20pm 10 14 mph 1023mb 78f
2:10pm 8 14 mph 1022.7mb 77f
2:00pm 8 15 mph 1023.4mb 77f
1:50pm 14 16 mph 1022.7mb 77f
1:40pm 14 16 mph 1023.7mb 77f
1:31pm 13 17 mph 1023.7mb 77f
1:30pm 13 16 mph 1022.7mb 77f
1:20pm 9 15 mph 1023.7mb 76f
1:10pm 14 16 mph 1023mb 77f
1:00pm 13 16 mph 1023.7mb 76f
12:50pm 14 17 mph 1023.4mb 76f
12:40pm 14 16 mph 1024mb 76f
12:30pm 14 18 mph 1024.4mb 76f
12:20pm 14 16 mph 1024mb 76f
12:10pm 13 17 mph 1023.7mb 75f
12:00pm 14 16 mph 1024.4mb 75f
11:50am 10 17 mph 1023.7mb 76f
11:40am 16 18 mph 1024.4mb 76f
11:30am 13 20 mph 1024.7mb 75f
11:20am 11 20 mph 1024.7mb 75f
11:10am 13 20 mph 1024mb 75f
11:00am 13 16 mph 1024.7mb 75f
10:50am 11 14 mph 1024.4mb 75f
10:40am 8 15 mph 1025.1mb 75f
10:30am 8 16 mph 1024.7mb 75f
10:20am 9 16 mph 1025.1mb 74f
10:10am 7 13 mph 1024.4mb 74f
10:00am 9 11 mph 1024.4mb 74f
9:50am 7 11 mph 1025.1mb 74f
9:40am 5 11 mph 1024.7mb 74f
9:30am 6 9 mph 1024mb 73f
9:29am 5 11 mph 1024.7mb 73f
9:20am 3 8 mph 1024.4mb 72f
9:10am 6 11 mph 1024.7mb 71f
9:00am 7 9 mph 1024.7mb 71f
8:50am 2 9 mph 1024mb 70f
8:40am 3 8 mph 1023.7mb 70f
8:30am 2 6 mph 1023.7mb 69f
8:29am 2 9 mph 1024.4mb 68f
8:20am 3 9 mph 1024mb 68f
8:10am 3 8 mph 1023.7mb 67f
8:00am 3 7 mph 1024mb 66f
7:50am 2 7 mph 1024.4mb 66f
7:40am 2 6 mph 1024.4mb 65f
7:30am 3 6 mph 1024.4mb 65f
7:28am 3 8 mph 1023.7mb 65f
7:20am 2 8 mph 1024.4mb 64f
7:10am 3 7 mph 1024.4mb 64f
7:00am 2 7 mph 1024.4mb 63f
6:50am 2 6 mph 1024.4mb 62f
6:40am 2 6 mph 1024mb 62f
6:30am 2 6 mph 1024.4mb 62f
6:28am 3 8 mph 1023.4mb 62f
6:20am 2 7 mph 1024mb 62f
6:10am 2 6 mph 1023.7mb 62f
6:00am 3 6 mph 1023.7mb 62f
5:50am 3 8 mph 1023.4mb 62f
5:40am 2 6 mph 1023.4mb 62f
5:30am 3 7 mph 1023mb 63f
5:28am 3 8 mph 1023.7mb 63f
5:20am 3 8 mph 1023mb 63f
5:10am 5 7 mph 1023mb 63f
5:00am 3 8 mph 1023.4mb 63f
4:50am 2 7 mph 1023.7mb 63f
4:40am 3 8 mph 1023.7mb 63f
4:30am 5 8 mph 1023.7mb 63f
4:27am 3 9 mph 1023.4mb 63f
4:20am 3 9 mph 1023.7mb 63f
4:10am 3 7 mph 1023.7mb 63f
4:00am 2 6 mph 1023.4mb 63f
3:50am 2 7 mph 1023.7mb 64f
3:40am 3 7 mph 1023.4mb 63f
3:30am 3 7 mph 1023.4mb 64f
3:27am 3 10 mph 1023.4mb 64f
3:20am 2 7 mph 1023.4mb 64f
3:10am 3 8 mph 1023mb 64f
3:00am 3 10 mph 1023mb 64f
2:50am 3 8 mph 1022.7mb 65f
2:40am 3 9 mph 1022.7mb 65f
2:30am 5 8 mph 1022.7mb 65f
2:26am 2 11 mph 1022.7mb 65f
2:20am 2 11 mph 1022.7mb 65f
2:10am 3 9 mph 1023mb 65f
2:00am 3 11 mph 1023.4mb 66f
1:50am 5 11 mph 1023.4mb 65f
1:40am 5 9 mph 1023.4mb 65f
1:30am 3 10 mph 1023.4mb 65f
1:26am 3 10 mph 1023.7mb 66f
1:20am 3 10 mph 1022.7mb 66f
1:10am 3 10 mph 1022.7mb 66f
1:00am 3 9 mph 1023mb 66f
12:50am 2 9 mph 1023.4mb 66f
12:40am 5 10 mph 1023.7mb 66f
12:30am 5 9 mph 1023.4mb 66f
12:26am 5 10 mph 1023.4mb 66f
12:20am 3 10 mph 1023mb 66f
12:10am 3 7 mph 1022.7mb 67f
12:00am 3 10 mph 1023mb 67f
Mon 08/22 11:50pm 3 9 mph 1023.4mb 67f
11:40pm 3 10 mph 1023mb 67f
11:30pm 5 9 mph 1022.4mb 67f
11:25pm 5 9 mph 1023mb 67f
11:20pm 3 8 mph 1022.7mb 67f
11:10pm 3 8 mph 1023mb 68f
11:00pm 3 7 mph 1022.7mb 68f
10:50pm 2 8 mph 1022.4mb 68f
10:40pm 3 7 mph 1022mb 68f
10:30pm 3 9 mph 1022.4mb 68f
10:25pm 3 9 mph 1022.7mb 68f
10:20pm 2 7 mph 1022.7mb 68f
10:10pm 3 7 mph 1022.7mb 69f
10:00pm 2 7 mph 1022.4mb 69f
9:50pm 3 8 mph 1022mb 69f
9:40pm 2 7 mph 1022.4mb 69f
9:30pm 2 6 mph 1022.7mb 70f
9:24pm 2 8 mph 1022mb 70f
9:20pm 2 8 mph 1022.4mb 70f
9:10pm 2 6 mph 1022mb 70f
9:00pm 1 5 mph 1022.4mb 69f
8:50pm  -  2 mph 1022.4mb 69f
8:40pm  -  1 mph 1021.7mb 69f
8:30pm  -  1 mph 1022.4mb 69f
8:24pm  -  2 mph 1022mb 69f
8:20pm  -  2 mph 1021.7mb 69f
8:10pm  -  1 mph 1022.4mb 69f
8:00pm  -  2 mph 1021.7mb 70f
7:50pm  -  1 mph 1022.4mb 70f
7:40pm  -  1 mph 1021.7mb 71f
7:30pm  -  1 mph 1021.7mb 74f
7:24pm  -  5 mph 1021.7mb 75f
7:20pm  -  2 mph 1022.4mb 75f
7:10pm  -  3 mph 1021.7mb 76f
7:00pm  -  3 mph 1021.7mb 78f
6:50pm 3
mph
1021.7mb 79f
6:40pm 3 5 mph 1021.3mb 78f
6:30pm 3 5 mph 1021.7mb 77f
6:23pm 3 6 mph 1021.7mb 78f
6:20pm 5
mph
1022mb 78f
6:10pm 3 6 mph 1022.4mb 77f
6:00pm 5 6 mph 1022.4mb 76f
5:50pm 5 6 mph 1022.4mb 78f
5:40pm 5 6 mph 1022.4mb 78f
5:30pm 5 6 mph 1022.4mb 79f
5:23pm 5 6 mph 1022.4mb 78f
5:20pm 3 6 mph 1022.4mb 78f
5:10pm 3 6 mph 1022.4mb 78f
5:00pm 5 6 mph 1022mb 78f
4:50pm 5 6 mph 1021.7mb 78f
4:40pm 5 6 mph 1021.7mb 78f
4:30pm 5 7 mph 1021.7mb 78f
4:22pm 6 9 mph 1022mb 77f
4:20pm 5 7 mph 1022mb 77f
4:10pm 5 7 mph 1022.4mb 77f
4:00pm 6 8 mph 1022.4mb 76f
3:50pm 7 8 mph 1022.7mb 76f
3:40pm 7 9 mph 1022.7mb 76f
3:30pm 7 9 mph 1022.4mb 76f
3:22pm 6 11 mph 1022mb 76f
3:20pm 7 9 mph 1022mb 76f
3:10pm 8 10 mph 1022mb 76f
3:00pm 7 9 mph 1022.7mb 76f
2:50pm 8 10 mph 1023mb 76f
2:40pm 8 11 mph 1023mb 76f
2:30pm 8 11 mph 1022.4mb 76f
2:22pm 7 11 mph 1022.7mb 76f
2:20pm 8 10 mph 1023mb 76f
2:10pm 8 10 mph 1023.4mb 76f
2:00pm 7 10 mph 1022.4mb 76f
1:50pm 8 9 mph 1023.4mb 76f
1:40pm 9 10 mph 1023mb 76f
1:30pm 8 11 mph 1022.7mb 76f
1:21pm 9 11 mph 1023.4mb 75f
1:20pm 9 11 mph 1023.4mb 75f
1:10pm 8 11 mph 1022.7mb 75f
1:00pm 8 11 mph 1023.4mb 75f
12:50pm 7 9 mph 1023.4mb 75f
12:40pm 7 10 mph 1023mb 76f
12:30pm 7 9 mph 1023.7mb 75f
12:21pm 6 11 mph 1023.4mb 75f
12:20pm 6 9 mph 1022.7mb 75f
12:10pm 7 9 mph 1023.7mb 75f
12:00pm 7 10 mph 1023mb 75f
11:50am 7 11 mph 1023.4mb 75f
11:40am 7 9 mph 1023.4mb 75f
11:30am 6 8 mph 1023mb 75f
11:20am 6 10 mph 1023mb 75f
11:10am 8 10 mph 1023mb 75f
11:00am 7 9 mph 1023.7mb 75f
10:50am 7 9 mph 1023mb 76f
10:40am 3 7 mph 1023.7mb 75f
10:30am 3 7 mph 1022.7mb 73f
10:20am 5 7 mph 1022.7mb 73f
10:10am 5 6 mph 1023mb 72f
10:00am 3 5 mph 1022.7mb 72f
9:50am 5 6 mph 1023mb 71f
9:40am 3 6 mph 1023mb 69f
9:30am 2 5 mph 1022.4mb 69f
9:20am 5 6 mph 1023mb 70f
9:19am 3 6 mph 1022.4mb 70f
9:10am 2 6 mph 1023mb 70f
8:19am 1 3 mph 1022mb 67f
8:00am 1 2 mph 1022mb 66f
7:50am  -  3 mph 1022mb 66f
7:40am 1 2 mph 1022mb 65f
7:30am 1 2 mph 1022mb 65f
7:20am 1 2 mph 1022mb 64f
7:19am  -  3 mph 1021.7mb 64f
7:10am 1 2 mph 1021.7mb 63f
7:00am  -  2 mph 1021.7mb 62f
6:50am 1 2 mph 1021.3mb 62f
6:40am 1 2 mph 1021mb 62f
6:30am 1 3 mph 1020.7mb 62f
6:20am 2 3 mph 1020.3mb 62f
6:18am 2 3 mph 1021.3mb 62f
6:10am 1 2 mph 1020.3mb 62f
6:00am 1 2 mph 1020.3mb 62f
5:50am 1 2 mph 1021mb 62f
5:40am  -  2 mph 1021mb 62f
5:30am 1 3 mph 1021mb 62f
5:20am 1 2 mph 1021mb 62f
5:18am 1 5 mph 1020.3mb 62f
5:10am 2 3 mph 1020.7mb 62f
5:00am 2
mph
1020.3mb 63f
4:50am  -  2 mph 1020mb 63f
4:40am 1 2 mph 1020mb 62f
4:30am 2 5 mph 1020mb 62f
4:20am 2 5 mph 1020mb 62f
4:17am 2 6 mph 1020.3mb 62f
4:10am 2 5 mph 1020mb 62f
4:00am 2 6 mph 1020mb 63f
3:50am 3 6 mph 1020.3mb 62f
3:40am 2 3 mph 1020.3mb 62f
3:30am 2 5 mph 1020.3mb 62f
3:20am 2 3 mph 1020.3mb 62f
3:17am 2 10 mph 1019.3mb 62f
3:10am 2 5 mph 1019.6mb 62f
3:00am 3 6 mph 1019.3mb 63f
2:50am 2 6 mph 1020mb 63f
2:40am 2 5 mph 1020mb 65f
2:30am 6 10 mph 1019.6mb 70f
2:20am 7 9 mph 1019.3mb 70f
2:17am 7 11 mph 1019mb 69f
2:10am 7 10 mph 1019mb 70f
2:00am 6 11 mph 1019mb 69f
1:50am 6 11 mph 1019.3mb 70f
1:40am 7 11 mph 1019.6mb 70f
1:30am 8 10 mph 1020mb 70f
1:20am 8 11 mph 1019.6mb 70f
1:16am 8 15 mph 1019.6mb 70f
1:10am 8 13 mph 1019mb 70f
1:00am 8 13 mph 1019mb 70f
12:50am 8 11 mph 1019mb 70f
12:40am 9 14 mph 1019.3mb 70f
12:30am 8 15 mph 1019.6mb 70f
12:20am 9 14 mph 1019.3mb 70f
12:16am 10 14 mph 1019.3mb 70f
12:10am 10 13 mph 1019mb 70f
12:00am 10 13 mph 1018.3mb 70f
Sun 08/21 11:50pm 9 14 mph 1018.3mb 70f
11:40pm 8 11 mph 1018.6mb 70f
11:30pm 9 11 mph 1019mb 70f
11:20pm 9 13 mph 1019mb 70f
11:15pm 9 13 mph 1019mb 70f
11:10pm 9 13 mph 1018.6mb 70f
10:15pm 10 16 mph 1018.3mb 69f
10:00pm 11 14 mph 1017.6mb 69f
9:50pm 10 13 mph 1017.3mb 70f
9:40pm 11 16 mph 1017.9mb 70f
9:30pm 13 16 mph 1017.9mb 70f
9:20pm 13 15 mph 1017.9mb 70f
9:15pm 11 17 mph 1017.9mb 70f
9:10pm 13 16 mph 1017.3mb 70f
9:00pm 10 15 mph 1016.9mb 70f
8:50pm 11 15 mph 1017.3mb 70f
8:40pm 11 17 mph 1017.3mb 69f
8:30pm 13 16 mph 1016.9mb 70f
8:20pm 14 16 mph 1016.6mb 70f
8:14pm 14 21 mph 1016.9mb 70f
8:10pm 15 20 mph 1016.9mb 70f
8:00pm 14 18 mph 1016.9mb 70f
7:50pm 15 20 mph 1015.9mb 70f
7:40pm 16 21 mph 1016.6mb 70f
7:30pm 17 21 mph 1016.6mb 72f
7:20pm 15 20 mph 1015.9mb 72f
7:14pm 14 21 mph 1016.3mb 72f
7:10pm 17 21 mph 1016.6mb 72f
7:00pm 16 21 mph 1015.6mb 72f
6:50pm 14 17 mph 1016.3mb 72f
6:40pm 14 18 mph 1015.6mb 72f
6:30pm 14 17 mph 1016.3mb 71f
6:20pm 14 21 mph 1015.2mb 72f
6:13pm 13
mph
1015.6mb 72f
6:10pm 13 18 mph 1016.3mb 72f
6:00pm 14 17 mph 1015.6mb 72f
5:50pm 13 16 mph 1016.3mb 72f
5:40pm 10 15 mph 1015.2mb 72f
5:30pm 11 15 mph 1015.9mb 72f
5:20pm 11 16 mph 1015.2mb 73f
5:13pm 11 20 mph 1015.2mb 73f
5:10pm 11 16 mph 1015.9mb 73f
5:00pm 13 18 mph 1014.9mb 72f
4:50pm 13 17 mph 1015.9mb 72f
4:40pm 14 17 mph 1014.9mb 71f
4:30pm 14 20 mph 1015.9mb 72f
4:20pm 14 21 mph 1014.9mb 72f
4:13pm 15 21 mph 1014.9mb 72f
4:10pm 13 20 mph 1015.6mb 72f
4:00pm 16 18 mph 1014.9mb 71f
3:50pm 16 21 mph 1015.6mb 72f
3:40pm 16 21 mph 1014.6mb 72f
3:30pm 14 18 mph 1015.2mb 71f
3:20pm 13 17 mph 1014.9mb 71f
3:12pm 13 20 mph 1015.2mb 72f
3:10pm 14 18 mph 1015.2mb 72f
3:00pm 14 17 mph 1014.6mb 72f
2:50pm 13 20 mph 1014.9mb 71f
2:40pm 13 18 mph 1014.9mb 72f
2:30pm 14 17 mph 1014.6mb 71f
2:20pm 15 17 mph 1015.2mb 70f
2:12pm 13 21 mph 1014.9mb 71f
2:10pm 14 20 mph 1014.6mb 71f
2:00pm 13 17 mph 1015.2mb 70f
1:50pm 15 21 mph 1014.9mb 70f
1:40pm 14 18 mph 1014.6mb 69f
1:30pm 15 20 mph 1014.9mb 70f
1:20pm 16 18 mph 1014.2mb 71f
1:11pm 16 22 mph 1014.9mb 71f
1:10pm 16 20 mph 1014.9mb 71f
1:00pm 16 22 mph 1014.2mb 70f
12:50pm 16 21 mph 1013.9mb 70f
12:40pm 17 20 mph 1014.6mb 70f
12:30pm 14 21 mph 1013.9mb 70f
12:20pm 14 20 mph 1013.5mb 70f
12:11pm 13 18 mph 1014.2mb 69f
12:10pm 13 18 mph 1014.2mb 69f
12:00pm 14 17 mph 1013.9mb 70f
11:50am 11 17 mph 1013.2mb 69f
11:40am 11 16 mph 1013.5mb 69f
11:30am 15 16 mph 1013.5mb 68f
11:20am 11 17 mph 1012.9mb 70f
11:11am 13 18 mph 1013.2mb 68f
11:10am 13 16 mph 1013.2mb 68f
11:00am 13 17 mph 1013.5mb 69f
10:50am 14 18 mph 1013.2mb 69f
10:40am 13 17 mph 1012.5mb 68f
10:30am 13 17 mph 1012.5mb 69f
10:20am 14 18 mph 1012.9mb 68f
10:10am 14 24 mph 1012.9mb 69f
10:00am 16 21 mph 1012.5mb 68f
9:50am 17 23 mph 1011.9mb 68f
9:40am 16 24 mph 1012.2mb 68f
9:30am 15 20 mph 1012.2mb 69f
9:20am 16 20 mph 1012.2mb 68f
9:10am 16 22 mph 1012.2mb 68f
9:00am 15 20 mph 1011.5mb 68f
8:50am 17 22 mph 1011.2mb 68f
8:40am 15 21 mph 1011.2mb 68f
8:30am 16 20 mph 1011.5mb 68f
8:20am 13 21 mph 1011.5mb 68f
8:10am 14 17 mph 1011.2mb 68f
8:09am 14 18 mph 1010.5mb 69f
8:00am 11 17 mph 1010.5mb 68f
7:50am 13 18 mph 1010.2mb 68f
7:40am 15 17 mph 1010.5mb 68f
7:30am 14 18 mph 1010.5mb 68f
7:20am 15 18 mph 1010.8mb 68f
7:10am 14 17 mph 1010.5mb 68f
7:09am 14 22 mph 1010.5mb 68f
7:00am 14 18 mph 1010.2mb 68f
6:50am 15 20 mph 1009.8mb 69f
6:40am 14 22 mph 1009.5mb 69f
6:30am 15 20 mph 1009.5mb 69f
6:20am 16 21 mph 1009.8mb 69f
6:10am 15 20 mph 1009.8mb 69f
6:09am 15 23 mph 1009.8mb 69f
6:00am 17 21 mph 1009.8mb 69f
5:50am 16 21 mph 1009.1mb 69f
5:40am 17 23 mph 1008.8mb 69f
5:30am 17 23 mph 1008.5mb 69f
5:20am 18 23 mph 1009.1mb 70f
5:10am 20 23 mph 1009.1mb 70f
5:08am 18 23 mph 1009.1mb 70f
5:00am 15 22 mph 1008.8mb 70f
4:50am 18 23 mph 1008.5mb 70f
4:40am 17 21 mph 1008.1mb 70f
4:30am 16 21 mph 1008.5mb 70f
4:20am 16 20 mph 1008.5mb 70f
4:10am 15 21 mph 1008.5mb 70f
4:08am 16 23 mph 1008.5mb 70f
4:00am 17 22 mph 1008.5mb 70f
3:50am 16 21 mph 1007.8mb 70f
3:40am 17 23 mph 1007.8mb 70f
3:30am 16 21 mph 1008.1mb 70f
3:20am 16 21 mph 1008.5mb 70f
3:10am 15 20 mph 1008.1mb 70f
3:07am 15 22 mph 1008.5mb 70f
3:00am 16 21 mph 1007.5mb 70f
2:50am 16 21 mph 1007.5mb 70f
2:40am 15 20 mph 1008.1mb 70f
2:30am 15 21 mph 1007.8mb 70f
2:20am 16 22 mph 1007.5mb 70f
2:10am 17 22 mph 1007.1mb 70f
2:07am 16 22 mph 1007.8mb 70f
2:00am 16 21 mph 1007.8mb 71f
1:50am 16 21 mph 1007.8mb 71f
1:40am 17 21 mph 1007.5mb 71f
1:30am 17 22 mph 1007.1mb 71f
1:20am 16 22 mph 1007.5mb 71f
1:10am 16 24 mph 1007.8mb 71f
1:07am 17 26 mph 1006.8mb 71f
1:00am 17 21 mph 1007.1mb 71f
12:50am 16 22 mph 1007.1mb 71f
12:40am 16 24 mph 1007.8mb 71f
12:30am 17 25 mph 1007.5mb 71f
12:20am 20 25 mph 1006.8mb 71f
12:10am 20 26 mph 1007.5mb 72f
12:06am 15 24 mph 1007.5mb 72f
12:00am 18 21 mph 1007.5mb 72f
Sat 08/20 11:50pm 17 22 mph 1006.8mb 72f
11:40pm 16 24 mph 1007.1mb 72f
11:30pm 18 24 mph 1007.5mb 72f
11:20pm 20 28 mph 1006.8mb 72f
11:10pm 20 25 mph 1006.8mb 73f
11:06pm 21
mph
1007.5mb 73f
11:00pm 20 31 mph 1007.5mb 73f
10:53pm 20 30 mph 1007.5mb 73f
10:50pm 21 26 mph 1006.8mb 73f
10:40pm 20 25 mph 1006.8mb 73f
10:30pm 20 26 mph 1007.1mb 73f
10:20pm 16 23 mph 1006.4mb 73f
10:10pm 21 24 mph 1006.4mb 73f
10:05pm 18 24 mph 1006.8mb 73f
10:00pm 16 23 mph 1007.1mb 73f
9:50pm 20 24 mph 1006.4mb 73f
9:40pm 18 22 mph 1006.4mb 73f
9:30pm 18 24 mph 1006.8mb 73f
9:20pm 17 21 mph 1006.1mb 73f
9:10pm 16 23 mph 1006.1mb 73f
9:05pm 18 25 mph 1006.4mb 73f
9:00pm 17 24 mph 1006.4mb 73f
8:50pm 17 24 mph 1005.8mb 73f
8:40pm 20 25 mph 1006.1mb 73f
8:30pm 18 25 mph 1005.8mb 73f
8:20pm 21 25 mph 1005.1mb 73f
8:10pm 18 25 mph 1005.4mb 72f
8:05pm 22 28 mph 1005.1mb 72f
8:00pm 20 24 mph 1004.7mb 73f
7:50pm 21 26 mph 1005.1mb 74f
7:40pm 21 28 mph 1004.4mb 74f
7:30pm 17 25 mph 1004.4mb 75f
7:20pm 16 23 mph 1004.4mb 76f
7:10pm 17 21 mph 1004.1mb 76f
7:04pm 16 24 mph 1004.4mb 77f
7:00pm 18 24 mph 1004.1mb 77f
6:50pm 15 21 mph 1003.7mb 77f
6:40pm 16 20 mph 1003.7mb 76f
6:30pm 11 16 mph 1003.4mb 76f
6:20pm 9 20 mph 1003.7mb 75f
6:10pm 11 14 mph 1003.4mb 76f
6:04pm 9 21 mph 1003.7mb 76f
6:00pm 9 13 mph 1003.7mb 76f
5:50pm 9 10 mph 1003.4mb 76f
5:40pm 9 17 mph 1003.7mb 76f
5:30pm 17 21 mph 1003.4mb 76f
5:20pm 17 21 mph 1003.4mb 77f
5:10pm 16 20 mph 1003mb 77f
5:03pm 15 18 mph 1002.7mb 77f
5:00pm 15 16 mph 1003mb 77f
4:50pm 14 16 mph 1003mb 76f
4:40pm 13 16 mph 1002.7mb 77f
4:30pm 15 18 mph 1003.4mb 77f